McGuire AFB, NJ

11:18 PM EDT on September 19, 2017 (GMT -0400)
McGuire Air Force Base

Weather History for KWRI - December, 2012

Change the Weather History Date:

Tuesday, December 11, 2012

  Actual Average Record
Temperature  
Mean Temperature 49 °F -  
Max Temperature 59 °F 46 °F 61 °F (2015)
Min Temperature 37 °F 29 °F 15 °F (2013)
Degree Days  
Heating Degree Days 16    
Moisture  
Dew Point 42 °F    
Average Humidity 83    
Maximum Humidity 100    
Minimum Humidity 57    
Precipitation  
Precipitation 0.10 in - - ()
Sea Level Pressure  
Sea Level Pressure 29.82 in    
Wind  
Wind Speed 10 mph (NW)    
Max Wind Speed 18 mph    
Max Gust Speed 23 mph    
Visibility 9 miles    
Events Rain    
Averages and records for this station are not official NWS values.
T = Trace of Precipitation, MM = Missing Value Source: NWS Daily Summary

Daily Weather History Graph

Daily Weather History Graph

Search for Another Location

Airport or City:

Trip Planner

Search our weather history database for the weather conditions in past years. The results will help you decide how hot, cold, wet, or windy it might be!

Date:

Astronomy

Dec. 11, 2012 Rise Set
Actual Time 7:10 AM EST 4:33 PM EST
Civil Twilight 6:40 AM EST 5:03 PM EST
Nautical Twilight 6:06 AM EST 5:37 PM EST
Astronomical Twilight 5:33 AM EST 6:10 PM EST
Moon 5:02 AM EST (12/11) 3:10 PM EST (12/11)
Length of Visible Light 10h 23m
Length of Day
9h 22m
Waning Crescent, 4% of the Moon is Illuminated
Dec 11
Waning Crescent
Dec 13
New
Dec 20
First Quarter
Dec 28
Full
Jan 4
Last Quarter

Hourly Weather History & Observations

Time (EST) Temp. Windchill Dew Point Humidity Pressure Visibility Wind Dir Wind Speed Gust Speed Precip Events Conditions
12:55 AM 59.0 °F - 58.6 °F 99% 29.59 in 10.0 mi WSW 9.2 mph - N/A   Partly Cloudy
1:04 AM 59.0 °F - 59.0 °F 100% 29.60 in 10.0 mi WSW 9.2 mph - N/A   Mostly Cloudy
1:07 AM 59.0 °F - 59.0 °F 100% 29.59 in 10.0 mi WSW 9.2 mph - N/A   Mostly Cloudy
1:51 AM 59.0 °F - 59.0 °F 100% 29.63 in 10.0 mi North 12.7 mph - N/A Rain Light Rain
1:53 AM 59.0 °F - 57.2 °F 94% 29.63 in 10.0 mi NNW 11.5 mph - N/A Rain Light Rain
1:55 AM 58.1 °F - 56.5 °F 94% 29.64 in 9.0 mi North 15.0 mph 18.4 mph 0.00 in Rain Light Rain
2:04 AM 53.6 °F - 51.8 °F 94% 29.65 in 10.0 mi North 15.0 mph - N/A Rain Light Rain
2:08 AM 51.8 °F - 50.0 °F 94% 29.65 in 10.0 mi North 18.4 mph - N/A   Light Drizzle
2:09 AM 51.8 °F - 48.2 °F 88% 29.66 in 10.0 mi North 17.3 mph - N/A   Overcast
2:15 AM 50.0 °F - 46.4 °F 87% 29.67 in 10.0 mi North 16.1 mph - N/A   Overcast
2:24 AM 50.0 °F - 44.6 °F 82% 29.68 in 10.0 mi North 15.0 mph - N/A   Mostly Cloudy
2:38 AM 48.2 °F - 44.6 °F 87% 29.70 in 10.0 mi NNW 13.8 mph 23.0 mph N/A Rain Light Rain
2:50 AM 46.4 °F 40.7 °F 42.8 °F 87% 29.71 in 10.0 mi NNW 12.7 mph - N/A Rain Light Rain
2:55 AM 46.8 °F - 42.1 °F 84% 29.71 in 10.0 mi NNW 12.7 mph 20.7 mph 0.00 in Rain Light Rain
3:04 AM 46.4 °F 40.7 °F 41.0 °F 81% 29.70 in 10.0 mi North 12.7 mph 21.9 mph N/A   Overcast
3:49 AM 46.4 °F 43.5 °F 41.0 °F 81% 29.72 in 10.0 mi North 5.8 mph - N/A Rain Light Rain
3:55 AM 45.7 °F 41.5 °F 41.2 °F 84% 29.72 in 10.0 mi North 8.1 mph - 0.00 in Rain Light Rain
4:12 AM 44.6 °F 40.7 °F 41.0 °F 87% 29.71 in 10.0 mi North 6.9 mph - N/A Rain Light Rain
4:40 AM 44.6 °F 42.2 °F 41.0 °F 87% 29.73 in 6.0 mi NNW 4.6 mph - N/A Rain Rain
4:43 AM 44.6 °F 41.4 °F 41.0 °F 87% 29.74 in 6.0 mi Variable 5.8 mph - N/A Rain Rain
4:45 AM 44.6 °F 41.4 °F 41.0 °F 87% 29.74 in 6.0 mi North 5.8 mph - N/A Rain Rain
4:48 AM 44.6 °F 40.7 °F 41.0 °F 87% 29.74 in 7.0 mi NNW 6.9 mph - N/A Rain Light Rain
4:55 AM 44.4 °F 42.0 °F 41.9 °F 91% 29.74 in 10.0 mi NNW 4.6 mph - 0.04 in Rain Light Rain
5:18 AM 44.6 °F 41.4 °F 42.8 °F 93% 29.77 in 6.0 mi NNW 5.8 mph - N/A Rain Rain
5:30 AM 44.6 °F 40.7 °F 42.8 °F 93% 29.78 in 7.0 mi NW 6.9 mph - N/A Rain Light Rain
5:53 AM 44.6 °F 40.7 °F 42.8 °F 93% 29.81 in 5.0 mi WNW 6.9 mph - N/A Rain Light Rain
5:54 AM 44.6 °F 40.2 °F 42.8 °F 93% 29.81 in 5.0 mi WNW 8.1 mph - N/A Rain Light Rain
5:55 AM 43.7 °F 38.6 °F 42.1 °F 94% 29.81 in 5.0 mi WNW 9.2 mph - 0.06 in Rain Light Rain
5:57 AM 44.6 °F 40.2 °F 42.8 °F 93% 29.81 in 6.0 mi WNW 8.1 mph - N/A Rain Light Rain
6:00 AM 44.6 °F 40.2 °F 42.8 °F 93% 29.82 in 8.0 mi NW 8.1 mph - N/A Rain Light Rain
6:03 AM 42.8 °F 38.0 °F 41.0 °F 93% 29.82 in 10.0 mi NW 8.1 mph - N/A   Mostly Cloudy
6:05 AM 42.8 °F 37.5 °F 41.0 °F 93% 29.82 in 10.0 mi NW 9.2 mph - N/A Rain Light Rain
6:24 AM 42.8 °F 38.0 °F 41.0 °F 93% 29.81 in 10.0 mi North 8.1 mph - N/A   Mostly Cloudy
6:44 AM 42.8 °F 40.1 °F 42.8 °F 100% 29.83 in 10.0 mi NW 4.6 mph - N/A Rain Light Rain
6:55 AM 43.7 °F 41.1 °F 42.1 °F 94% 29.83 in 10.0 mi NW 4.6 mph - 0.00 in Rain Light Rain
6:56 AM 42.8 °F 40.1 °F 42.8 °F 100% 29.83 in 10.0 mi NW 4.6 mph - N/A   Overcast
7:55 AM 43.9 °F 38.8 °F 42.1 °F 93% 29.85 in 10.0 mi NNW 9.2 mph - N/A   Mostly Cloudy
8:55 AM 45.1 °F 39.9 °F 39.6 °F 81% 29.88 in 10.0 mi NNW 10.4 mph - N/A   Mostly Cloudy
9:55 AM 47.5 °F - 39.9 °F 75% 29.92 in 10.0 mi NNW 8.1 mph - N/A   Mostly Cloudy
10:55 AM 46.8 °F - 36.9 °F 68% 29.94 in 10.0 mi NW 8.1 mph - N/A   Overcast
11:55 AM 47.1 °F - 36.1 °F 66% 29.94 in 10.0 mi NNW 9.2 mph - N/A   Overcast
12:55 PM 48.4 °F - 36.0 °F 62% 29.95 in 10.0 mi NNW 9.2 mph - N/A   Overcast
1:55 PM 48.0 °F - 33.4 °F 57% 29.95 in 10.0 mi NNW 8.1 mph - N/A   Overcast
2:55 PM 47.7 °F - 34.2 °F 60% 29.98 in 10.0 mi WNW 6.9 mph - N/A   Overcast
3:55 PM 48.2 °F - 33.4 °F 57% 30.00 in 10.0 mi WNW 5.8 mph - N/A   Mostly Cloudy
4:55 PM 45.0 °F 43.5 °F 33.6 °F 64% 30.04 in 10.0 mi WNW 3.5 mph - N/A   Mostly Cloudy
5:55 PM 45.9 °F 43.6 °F 32.5 °F 60% 30.06 in 10.0 mi West 4.6 mph - N/A   Overcast
6:55 PM 44.1 °F 40.1 °F 30.7 °F 59% 30.10 in 10.0 mi WNW 6.9 mph - N/A   Mostly Cloudy
7:55 PM 42.6 °F 37.2 °F 28.8 °F 58% 30.12 in 10.0 mi WNW 9.2 mph - N/A   Overcast
8:55 PM 41.9 °F 36.9 °F 28.6 °F 59% 30.15 in 10.0 mi WNW 8.1 mph - N/A   Overcast
9:55 PM 39.9 °F 35.8 °F 28.2 °F 63% 30.17 in 10.0 mi WNW 5.8 mph - N/A   Clear
10:55 PM 39.2 °F 34.2 °F 27.1 °F 62% 30.18 in 10.0 mi NW 6.9 mph - N/A   Clear
11:55 PM 37.4 °F 33.8 °F 27.3 °F 67% 30.19 in 10.0 mi NW 4.6 mph - N/A   Clear